sat.trackr.live / text

‹ back to catalog

HAWK-9A

NORAD 59446 · 2024-066E

PAYLOAD ACTIVE UNKNOWN

§ Identity

Operator
Country
US
Launch date
2024-04-07
Launch site
AFETR
Launch vehicle
Mass (kg)
RCS (m²)

External: N2YO · Heavens-Above · Gunter

§ Orbital elements

Epoch: 2026-09-22T00:27:09.326016Z

Period
96.04 min
Inclination
45.6090°
Eccentricity
0.0003075
Mean motion
14.99384374 rev/d
Perigee alt
566.7 km
Apogee alt
570.9 km
Semi-major
6,946.9 km
B*
8.7950e-5
RAAN
136.6402°
Arg perigee
208.4497°
Mean anomaly
151.6217°
Rev number
13,436

§ Raw data

HAWK-9A1 59446U 24066E   26265.01885794  .00000861  00000+0  87950-4 0  99962 59446  45.6090 136.6402 0003075 208.4497 151.6217 14.99384374134367

JSON: /api/v1/satellites/59446 · /tle

For live sub-satellite position, see the globe view (requires WebGL).

§ Visibility from observer

Set your observer location to see the next 7 days of passes ≥ 10°. The values pass through the URL so the page stays shareable.

No JS? Fill the form by hand. The geolocation button needs JavaScript.